Rutland, VT

6:28 AM EDT on September 26, 2017 (GMT -0400)
Rutland State

Weather History for KRUT - June, 2012

Change the Weather History Date:

Tuesday, June 19, 2012

  Actual Average Record
Temperature  
Mean Temperature 67 °F -  
Max Temperature 79 °F - 87 °F (1955)
Min Temperature 55 °F - 36 °F (1956)
Degree Days  
Heating Degree Days 0    
Month to date heating degree days 79  
Since 1 June heating degree days 79  
Since 1 July heating degree days 6061  
Cooling Degree Days 2    
Month to date cooling degree days 16  
Year to date cooling degree days 58  
Since 1 June cooling degree days 16  
Growing Degree Days 16 (Base 50)    
Moisture  
Dew Point 54 °F    
Average Humidity 66    
Maximum Humidity 78    
Minimum Humidity 53    
Precipitation  
Precipitation 0.00 in - 1.06 in (2017)
Month to date precipitation 1.01  
Year to date precipitation 9.33  
Sea Level Pressure  
Sea Level Pressure 30.07 in    
Wind  
Wind Speed 5 mph (SSE)    
Max Wind Speed 10 mph    
Max Gust Speed -    
Visibility 10 miles    
Events      
T = Trace of Precipitation, MM = Missing Value Source: NWS Daily Summary

Daily Weather History Graph

Daily Weather History Graph

Search for Another Location

Airport or City:

Trip Planner

Search our weather history database for the weather conditions in past years. The results will help you decide how hot, cold, wet, or windy it might be!

Date:

Astronomy

Jun. 19, 2012 Rise Set
Actual Time 5:10 AM EDT 8:36 PM EDT
Civil Twilight 4:34 AM EDT 9:12 PM EDT
Nautical Twilight 3:47 AM EDT 9:59 PM EDT
Astronomical Twilight 2:48 AM EDT 10:58 PM EDT
Moon 5:13 AM EDT (6/19) 8:36 PM EDT (6/19)
Length of Visible Light 16h 37m
Length of Day
15h 25m
New Moon, 0% of the Moon is Illuminated
Jun 19
New Moon
Jun 26
First Quarter
Jul 3
Full
Jul 10
Last Quarter
Jul 19
New

Hourly Weather History & Observations

Time (EDT) Temp. Dew Point Humidity Pressure Visibility Wind Dir Wind Speed Gust Speed Precip Events Conditions
12:35 AM 60.8 °F 48.2 °F 63% 30.11 in 10.0 mi SE 6.9 mph - N/A   Clear
12:55 AM 59.0 °F 46.4 °F 63% 30.11 in 10.0 mi ESE 8.1 mph - N/A   Clear
1:15 AM 57.2 °F 46.4 °F 67% 30.12 in 10.0 mi ESE 6.9 mph - N/A   Clear
1:56 AM 57.2 °F 46.4 °F 67% 30.11 in 10.0 mi ESE 8.1 mph - N/A   Partly Cloudy
2:35 AM 57.2 °F 46.4 °F 67% 30.10 in 10.0 mi ESE 5.8 mph - N/A   Clear
2:55 AM 57.2 °F 46.4 °F 67% 30.10 in 10.0 mi ESE 6.9 mph - N/A   Clear
3:15 AM 55.4 °F 46.4 °F 72% 30.10 in 10.0 mi ESE 8.1 mph - N/A   Clear
3:35 AM 55.4 °F 46.4 °F 72% 30.11 in 10.0 mi ESE 8.1 mph - N/A   Scattered Clouds
3:55 AM 55.4 °F 46.4 °F 72% 30.10 in 10.0 mi ESE 3.5 mph - N/A   Overcast
4:15 AM 55.4 °F 46.4 °F 72% 30.09 in 10.0 mi ESE 9.2 mph - N/A   Overcast
4:55 AM 55.4 °F 46.4 °F 72% 30.09 in 10.0 mi SE 10.4 mph - N/A   Overcast
5:15 AM 55.4 °F 46.4 °F 72% 30.09 in 10.0 mi SE 6.9 mph - N/A   Overcast
5:35 AM 57.2 °F 46.4 °F 67% 30.10 in 10.0 mi SE 8.1 mph - N/A   Overcast
5:55 AM 57.2 °F 46.4 °F 67% 30.10 in 10.0 mi ESE 8.1 mph - N/A   Overcast
6:15 AM 57.2 °F 46.4 °F 67% 30.11 in 10.0 mi ESE 10.4 mph - N/A   Overcast
6:35 AM 57.2 °F 46.4 °F 67% 30.11 in 10.0 mi ESE 8.1 mph - N/A   Overcast
7:15 AM 59.0 °F 48.2 °F 67% 30.12 in 10.0 mi ESE 3.5 mph - N/A   Overcast
7:35 AM 60.8 °F 48.2 °F 63% 30.11 in 10.0 mi ESE 5.8 mph - N/A   Overcast
8:15 AM 60.8 °F 48.2 °F 63% 30.11 in 10.0 mi ESE 4.6 mph - N/A   Overcast
8:35 AM 60.8 °F 50.0 °F 68% 30.11 in 10.0 mi SE 4.6 mph - N/A   Overcast
8:55 AM 60.8 °F 50.0 °F 68% 30.11 in 10.0 mi Calm Calm - N/A   Overcast
9:35 AM 64.4 °F 51.8 °F 64% 30.09 in 10.0 mi East 4.6 mph - N/A   Overcast
9:55 AM 66.2 °F 51.8 °F 60% 30.09 in 10.0 mi Calm Calm - N/A   Overcast
10:15 AM 66.2 °F 51.8 °F 60% 30.09 in 10.0 mi SSE 5.8 mph - N/A   Overcast
10:35 AM 66.2 °F 51.8 °F 60% 30.08 in 10.0 mi Calm Calm - N/A   Overcast
10:55 AM 68.0 °F 53.6 °F 60% 30.07 in 10.0 mi SSE 3.5 mph - N/A   Overcast
11:15 AM 68.0 °F 53.6 °F 60% 30.07 in 10.0 mi Calm Calm - N/A   Overcast
11:55 AM 69.8 °F 53.6 °F 56% 30.06 in 10.0 mi WSW 6.9 mph - N/A   Overcast
12:15 PM 69.8 °F 55.4 °F 60% 30.06 in 10.0 mi WSW 5.8 mph - N/A   Overcast
12:35 PM 69.8 °F 55.4 °F 60% 30.06 in 10.0 mi WSW 6.9 mph - N/A   Overcast
12:55 PM 71.6 °F 55.4 °F 57% 30.06 in 10.0 mi SW 4.6 mph - N/A   Overcast
1:35 PM 71.6 °F 55.4 °F 57% 30.06 in 10.0 mi Calm Calm - N/A   Overcast
1:55 PM 73.4 °F 55.4 °F 53% 30.05 in 10.0 mi Calm Calm - N/A   Mostly Cloudy
2:35 PM 73.4 °F 57.2 °F 57% 30.05 in 10.0 mi WSW 9.2 mph - N/A   Mostly Cloudy
2:55 PM 73.4 °F 57.2 °F 57% 30.05 in 10.0 mi West 8.1 mph - N/A   Mostly Cloudy
3:15 PM 73.4 °F 57.2 °F 57% 30.05 in 10.0 mi NW 4.6 mph - N/A   Mostly Cloudy
3:55 PM 77.0 °F 59.0 °F 54% 30.04 in 10.0 mi West 8.1 mph - N/A   Mostly Cloudy
4:15 PM 75.2 °F 57.2 °F 53% 30.03 in 10.0 mi West 6.9 mph - N/A   Overcast
4:55 PM 75.2 °F 59.0 °F 57% 30.03 in 10.0 mi WSW 6.9 mph - N/A   Overcast
5:15 PM 75.2 °F 59.0 °F 57% 30.03 in 10.0 mi WSW 5.8 mph - N/A   Overcast
5:35 PM 75.2 °F 59.0 °F 57% 30.03 in 10.0 mi Calm Calm - N/A   Overcast
5:55 PM 77.0 °F 59.0 °F 54% 30.02 in 10.0 mi WSW 3.5 mph - N/A   Mostly Cloudy
6:15 PM 77.0 °F 60.8 °F 57% 30.03 in 10.0 mi Calm Calm - N/A   Scattered Clouds
6:35 PM 77.0 °F 59.0 °F 54% 30.02 in 10.0 mi West 4.6 mph - N/A   Overcast
6:55 PM 77.0 °F 59.0 °F 54% 30.02 in 10.0 mi Calm Calm - N/A   Overcast
7:35 PM 75.2 °F 60.8 °F 61% 30.03 in 10.0 mi Calm Calm - N/A   Overcast
7:55 PM 73.4 °F 60.8 °F 65% 30.03 in 10.0 mi NE 5.8 mph - N/A   Overcast
8:15 PM 73.4 °F 60.8 °F 65% 30.04 in 10.0 mi North 3.5 mph - N/A   Overcast
8:35 PM 75.2 °F 60.8 °F 61% 30.05 in 10.0 mi West 3.5 mph - N/A   Mostly Cloudy
8:55 PM 75.2 °F 59.0 °F 57% 30.06 in 10.0 mi NW 3.5 mph - N/A   Overcast
9:15 PM 73.4 °F 60.8 °F 65% 30.05 in 10.0 mi Calm Calm - N/A   Mostly Cloudy
9:35 PM 73.4 °F 60.8 °F 65% 30.04 in 10.0 mi WSW 6.9 mph - N/A   Partly Cloudy
9:55 PM 73.4 °F 59.0 °F 61% 30.03 in 10.0 mi ESE 3.5 mph - N/A   Clear
10:15 PM 69.8 °F 59.0 °F 68% 30.01 in 10.0 mi SSE 4.6 mph - N/A   Clear
10:35 PM 69.8 °F 59.0 °F 68% 29.99 in 10.0 mi ESE 8.1 mph - N/A   Clear
10:55 PM 69.8 °F 59.0 °F 68% 29.99 in 10.0 mi ESE 4.6 mph - N/A   Clear
11:15 PM 69.8 °F 59.0 °F 68% 30.01 in 10.0 mi ESE 3.5 mph - N/A   Clear
11:35 PM 69.8 °F 57.2 °F 64% 30.02 in 10.0 mi East 3.5 mph - N/A   Clear